Regional Weather Roundup
Issued by NWS Newport/Morehead, NC

Home | Current Version | Previous Version | Text Only | Print | Product List | Glossary On
Versions: 1 2 3 4 5 6 7 8 9 10 11 12 13 14 15 16 17 18 19 20 21 22 23 24 25 26 27 28 29 30 31 32 33 34 35 36 37 38 39 40 41 42 43 44 45 46 47 48 49 50
000
ASUS42 KMHX 230225
RWRMHX
WEATHER ROUNDUP FOR EASTERN NORTH CAROLINA
NATIONAL WEATHER SERVICE NEWPORT/MOREHEAD CITY NC
1000 PM EDT FRI SEP 22 2017

NOTE: "FAIR" INDICATES FEW OR NO CLOUDS BELOW 12,000 FEET
WITH NO SIGNIFICANT WEATHER AND/OR OBSTRUCTIONS TO VISIBILITY

NCZ015>017-031-032-045>047-102-103-230300-
NORTH COAST

CITY           SKY/WX    TMP DP  RH WIND       PRES   REMARKS
EDENTON        CLEAR     73  71  93 CALM      30.02S
ELIZABETH CITY CLEAR     69  69 100 CALM      30.01S FOG
KITTY HAWK     CLEAR     68  67  96 CALM      30.00F
MANTEO         PTCLDY    68  66  92 CALM      30.02S

$$

NCZ045>047-081-094-103-104-230300-
CENTRAL COAST

CITY           SKY/WX    TMP DP  RH WIND       PRES   REMARKS
FRISCO         MOCLDY    75  72  90 W3        30.01S

$$

NCZ095-097-098-100-101-230300-
SOUTHERN COAST

CITY           SKY/WX    TMP DP  RH WIND       PRES   REMARKS
BEAUFORT       CLEAR     76  72  87 SW5       30.00S
CEDAR ISLAND   NOT AVBL
JACKSONVILLE   CLEAR     72  71  97 W3        30.00S
PINEY ISLAND     N/A    N/A N/A N/A S5        30.00S
WILMINGTON     CLEAR     73  70  90 CALM      30.01S


$$

NCZ011>013-027>030-043-044-078>080-089-090>093-098-230300-
COASTAL PLAIN

CITY           SKY/WX    TMP DP  RH WIND       PRES   REMARKS
AHOSKIE        CLEAR     66  66 100 CALM      30.02S
CLINTON        CLEAR     70  68  93 CALM      30.02S
ELIZABETHTOWN  NOT AVBL
GOLDSBORO      CLEAR     72  72  99 CALM      29.99S
GREENVILLE     CLOUDY    75  68  78 E3        30.03S
HAVELOCK       CLEAR     72  71  97 SW3       30.01S
KENANSVILLE    CLEAR     70  66  88 CALM      30.01S
KINSTON        NOT AVBL
NEW BERN       CLEAR     73  71  93 CALM      30.02R
RICHLANDS      CLEAR     69  68  96 CALM      30.01S
ROCKY MOUNT    PTCLDY    70  68  93 CALM      30.02R
WASHINGTON     CLEAR     74  69  83 NE6       30.01S
WHITEVILLE     CLEAR     73  71  95 CALM      30.01S

$$

AMZ130-135-150-152-154-156-158-170-250-252-270-ANZ085-086-088-633-658-670-230300-
MARINE OBSERVATIONS

STATION/POSITION TIME  TEMP    WIND        PRES    WAVE   SWELL
                       AIR SEA DIR/SP/G            HT/PER HT/PER
                 (UTC) (F)     (DEG/KT/KT) (MB)    (FT/S) (FT/S)
CHESAPEAKE LIGHT NOT AVBL
64 E VA BEACH    0150   70 70  230/  4/  6 1016.2    8/11   8/11
DUCK             0200   74 77  140/  3/  4 1015.8
2 E DUCK         0200      76                N/A     5/12   3/12
OREGON INLET     0200           60/  2/  2 1016.1
13E OREGON INLT  0048      75                N/A     7/11   7/11
HATTERAS CG      0200   76 79  240/  3/  4 1016.1
DIAMOND BUOY     0150   78 78  280/  2/  4 1016.0    6/11   5/11
CAPE LOOKOUT     0200   78     190/  5/  6 1015.8
BEAUFORT LAB     0200   78 77  210/  4/  5 1015.4
30 SE NEW RVR IN 0208   80     160/  4/  8 1015.9
30 SE NEW RVR IN NOT AVBL
27 SE WRIGHTSVLE 0208   80 81  120/  4/  6 1016.1
5 SE WRIGHTSVLE  0208   78 79  250/  2/  4 1015.6
225 S CAPE HAT   0150   79 80   60/ 12/ 14 1015.1   10/13  10/13
41 SE CHARLESTON 0210   81 82   60/  8/ 10 1014.9

$$




USA.gov is the U.S. government's official web portal to all federal, state and local government web resources and services.